Observations for Trim Patrick St
| Time | AQI | Temp °C | Hum % | Pres Pa | CO μg/m³ | H₂S μg/m³ | NO μg/m³ | NO₂ μg/m³ | O₃ μg/m³ | SO₂ μg/m³ | PM1 μg/m³ | PM2.5 μg/m³ | PM10 μg/m³ |
|---|---|---|---|---|---|---|---|---|---|---|---|---|---|
| Saturday 8 August 2026 | |||||||||||||
| 19:15 | 3 | 28.9 | 38 | 69,226 | 0 | 21.7 | 0.75 | 42.25 | 54.03 | 15.34 | 2.86 | 8.77 | 9.65 |
| 19:14 | 3 | 28.9 | 38 | 69,222 | 0 | 21.24 | 0.74 | 21.53 | 71.41 | 16.25 | 2.86 | 7.99 | 8.79 |
| 19:13 | 3 | 28.9 | 37 | 69,218 | 0 | 14.23 | 0.73 | 19.31 | 62.87 | 15.18 | 2 | 8 | 8.8 |
| 19:12 | 3 | 29 | 37 | 69,220 | 0 | 12.19 | 0.72 | 14.46 | 60.29 | 14.66 | 2 | 7.21 | 7.93 |
| 19:11 | 3 | 29 | 38 | 69,218 | 0 | 17.55 | 0.7 | 21.95 | 67.62 | 15.84 | 2 | 7.2 | 7.92 |
| 19:10 | 3 | 29 | 38 | 69,238 | 0 | 18.24 | 0.69 | 33.09 | 59.45 | 15.57 | 2 | 7.2 | 7.92 |
| 19:09 | 3 | 29.1 | 38 | 69,240 | 0 | 19.04 | 0.7 | 14.2 | 67.27 | 16.24 | 2 | 7.99 | 8.79 |
| 19:08 | 3 | 29.1 | 37 | 69,242 | 0 | 24.63 | 0.7 | 28.86 | 67.61 | 16.82 | 2.86 | 8.79 | 9.67 |
| 19:07 | 3 | 29.1 | 37 | 69,244 | 0 | 20.19 | 0.68 | 26.46 | 66.09 | 15.54 | 2.86 | 8 | 8.81 |
| 19:06 | 3 | 29.2 | 37 | 69,248 | 0 | 21.82 | 0.7 | 23.88 | 72.67 | 16.87 | 2 | 7.23 | 7.96 |
| 19:05 | 3 | 29.3 | 37 | 69,252 | 0 | 15.14 | 0.68 | 21.49 | 75.65 | 15.87 | 2 | 7.24 | 7.96 |
| 19:04 | 3 | 29.4 | 37 | 69,256 | 0 | 14.68 | 0.69 | 14.72 | 68.63 | 15.82 | 2 | 8.04 | 8.85 |
| 19:02 | 3 | 29.5 | 37 | 69,269 | 0 | 15.59 | 0.68 | 16.29 | 72.67 | 15.99 | 2.86 | 8.04 | 8.85 |
| 19:01 | 3 | 29.6 | 36 | 69,280 | 0 | 19.11 | 0.66 | 26.43 | 66.28 | 16.78 | 2.86 | 8.86 | 9.75 |
| 19:00 | 3 | 29.7 | 36 | 69,260 | 0 | 14.58 | 0.7 | 14.75 | 66.96 | 15.96 | 2 | 7.28 | 8.01 |
| 18:58 | 3 | 29.8 | 36 | 69,269 | 0 | 22.32 | 0.68 | 31.52 | 66.55 | 16.74 | 2 | 8.09 | 8.9 |
| 18:55 | 3 | 30.1 | 36 | 69,252 | 0 | 17.13 | 0.67 | 19.65 | 72.11 | 16.81 | 2.86 | 8.12 | 8.93 |
| 18:54 | 3 | 30.2 | 35 | 69,250 | 0 | 15.51 | 0.7 | 20.33 | 80.31 | 17.27 | 2.86 | 8.13 | 8.94 |
| 18:53 | 3 | 30.3 | 35 | 69,246 | 0 | 8.45 | 0.7 | 13.82 | 63.75 | 15.92 | 2 | 7.35 | 8.09 |
| 18:52 | 3 | 30.4 | 35 | 69,280 | 0 | 9.62 | 0.71 | 14.2 | 65.35 | 16.44 | 2 | 7.35 | 8.09 |